STARLINK-34344 (64159 NORAD) Tracking and Keplerian Element Data

This shows tracking and keplerian element data for the satellite.

Feedback or suggestion? Click here.




ElementValue
Catalog64159
NameSTARLINK-34344
Epoch Orbit3132
Epoch Day354.06286124
Epoch Year2025
RAAN42.9829
Inclination97.6057
Eccentricity0.0001431
Argument of Perigee91.5668
Mean Anonmoly268.5722
Mean Motion15.05649283
Decay Rate1.469E-05
L11 64159U 25112P 25354.06286124 .00001469 00000+0 10602-3 0 9995
L22 64159 97.6057 42.9829 0001431 91.5668 268.5722 15.05649283 31323



Live tracking and technical data element details for STARLINK-34344 (NORAD 64159). STARLINK-34344 can be tracked NOW for your location showing map with azimuth and elevation plus other details from your city location.







IsCatalogInMostPopularTable: catalog: 64159, numindb: 10
Update: records affected: 1



GetName: 64159 STARLINK-34344

Hit Count: updated at: Tue, 21 Apr 2026 19:56:24 GMT